{"data":{"norad_id":52771,"epoch":"2026-09-20T02:05:14.044704Z","epoch_age_seconds":167346,"freshness":"FRESH","line1":"1 52771U 22057AR  26263.08696811  .00000567  00000+0  78626-4 0  9996","line2":"2 52771  97.4619 319.0306 0006998  25.6762 334.4798 14.81367634234440","mean_motion":14.81367634,"eccentricity":0.0006998,"inclination_deg":97.4619,"raan_deg":319.0306,"arg_perigee_deg":25.6762,"mean_anomaly_deg":334.4798,"bstar":7.8626e-5,"rev_number":23444,"period_min":97.207470107316,"perigee_km":620.10969783906,"apogee_km":629.9113030807,"semimajor_km":7003.1475004599,"source":"CELESTRAK","updated_at":"2026-09-21T09:00:08.719109Z"}}